Weather History for KGAG - July, 2013

Change the Weather History Date:

Saturday, July 6, 2013

  Actual Average Record
Temperature  
Mean Temperature 86 °F -  
Max Temperature 96 °F 95 °F 106 °F (1970)
Min Temperature 75 °F 67 °F 55 °F (1997)
Cooling Degree Days 20    
Growing Degree Days 36 (Base 50)    
Moisture  
Dew Point 52 °F    
Average Humidity 36    
Maximum Humidity 51    
Minimum Humidity 21    
Precipitation  
Precipitation 0.00 in - - ()
Sea Level Pressure  
Sea Level Pressure 29.79 in    
Wind  
Wind Speed 21 mph (South)    
Max Wind Speed 28 mph    
Max Gust Speed 37 mph    
Visibility 10 miles    
Events Thunderstorm    
Averages and records for this station are not official NWS values.
T = Trace of Precipitation, MM = Missing Value Source: NWS Daily Summary

Daily Weather History Graph

Daily Weather History Graph

Search for Another Location

Airport or City:

Trip Planner

Search our weather history database for the weather conditions in past years. The results will help you decide how hot, cold, wet, or windy it might be!

Date:

Astronomy

Jul. 06, 2013 Rise Set
Actual Time 6:27 AM CDT 8:59 PM CDT
Civil Twilight 5:57 AM CDT 9:29 PM CDT
Nautical Twilight 5:20 AM CDT 10:07 PM CDT
Astronomical Twilight 4:39 AM CDT 10:48 PM CDT
Moon 5:13 AM CDT (7/6) 7:44 PM CDT (7/6)
Length of Visible Light 15h 32m
Length of Day
14h 32m
Waning Crescent, 2% of the Moon is Illuminated
Jul 6
Waning Crescent
Jul 8
New
Jul 15
First Quarter
Jul 22
Full
Jul 29
Last Quarter

Hourly Weather History & Observations

Time (CDT) Temp. Heat Index Dew Point Humidity Pressure Visibility Wind Dir Wind Speed Gust Speed Precip Events Conditions
12:53 AM 79.0 °F - 51.1 °F 38% 29.78 in 10.0 mi South 21.9 mph 29.9 mph N/A   Clear
1:53 AM 78.1 °F - 51.1 °F 39% 29.77 in 10.0 mi South 24.2 mph 29.9 mph N/A   Clear
2:53 AM 78.1 °F - 53.1 °F 42% 29.77 in 10.0 mi South 26.5 mph 35.7 mph N/A   Partly Cloudy
3:53 AM 78.1 °F - 53.1 °F 42% 29.78 in 10.0 mi South 20.7 mph 27.6 mph N/A Thunderstorm Mostly Cloudy
4:38 AM 78.8 °F - 53.6 °F 42% 29.89 in 10.0 mi South 20.7 mph 26.5 mph N/A   Scattered Clouds
4:53 AM 78.1 °F - 53.1 °F 42% 29.79 in 10.0 mi South 23.0 mph 33.4 mph N/A   Mostly Cloudy
5:53 AM 77.0 °F - 53.1 °F 43% 29.77 in 10.0 mi South 27.6 mph 36.8 mph N/A   Scattered Clouds
6:53 AM 75.0 °F - 53.1 °F 46% 29.78 in 10.0 mi SSW 17.3 mph 26.5 mph N/A   Clear
7:53 AM 75.9 °F - 53.1 °F 45% 29.81 in 10.0 mi South 12.7 mph - N/A   Clear
8:53 AM 75.9 °F - 53.1 °F 45% 29.81 in 10.0 mi South 16.1 mph 24.2 mph N/A   Mostly Cloudy
9:53 AM 75.0 °F - 55.9 °F 51% 29.82 in 10.0 mi SSW 13.8 mph 20.7 mph 0.00 in   Overcast
12:53 PM 84.0 °F 82.9 °F 55.0 °F 37% 29.83 in 10.0 mi SSW 17.3 mph 23.0 mph N/A   Mostly Cloudy
1:53 PM 84.0 °F 82.9 °F 55.0 °F 37% 29.82 in 10.0 mi South 13.8 mph 21.9 mph N/A   Scattered Clouds
2:53 PM 89.1 °F 87.7 °F 57.0 °F 34% 29.79 in 10.0 mi South 21.9 mph 26.5 mph N/A   Partly Cloudy
3:53 PM 93.9 °F 92.2 °F 55.9 °F 28% 29.77 in 10.0 mi South 23.0 mph 33.4 mph N/A   Clear
4:53 PM 96.1 °F - 50.0 °F 21% 29.76 in 10.0 mi South 24.2 mph 32.2 mph N/A   Clear
5:53 PM 95.0 °F - 48.9 °F 21% 29.75 in 10.0 mi South 25.3 mph 32.2 mph N/A   Clear
6:53 PM 93.9 °F - 48.0 °F 21% 29.75 in 10.0 mi South 19.6 mph 28.8 mph N/A   Clear
7:53 PM 91.9 °F - 48.9 °F 23% 29.76 in 10.0 mi South 19.6 mph 26.5 mph N/A   Clear
8:53 PM 86.0 °F - 48.9 °F 28% 29.77 in 10.0 mi SSE 11.5 mph - N/A   Clear
9:53 PM 84.0 °F - 48.9 °F 29% 29.80 in 10.0 mi SSE 11.5 mph - N/A   Clear
10:53 PM 82.9 °F - 50.0 °F 32% 29.82 in 10.0 mi SSE 17.3 mph 24.2 mph N/A   Clear
11:53 PM 82.0 °F - 52.0 °F 35% 29.83 in 10.0 mi South 17.3 mph 24.2 mph N/A   Clear